Location: Tucson
(32.2220°N, 110.9260°W)
Time: 22:07:28
(UTC-07:00)

GENESIS II - Visible Passes

Search period start: 19 October 2018 00:00
Search period end: 29 October 2018 00:00
Orbit: 495 x 536 km, 64.5° (Epoch: 19 October)

Date Brightness Start Highest point End Pass type
(mag) Time Alt. Az. Time Alt. Az. Time Alt. Az.
19 Oct 6.5 19:06:27 10° NNE 19:07:05 12° NNE 19:07:05 12° NNE visible
20 Oct 6.1 18:50:39 10° NNE 18:52:24 15° NE 18:52:24 15° NE visible
20 Oct 7.4 20:27:15 10° NW 20:27:26 11° NW 20:27:26 11° NW visible
21 Oct 5.9 18:34:50 10° NNE 18:37:26 16° NE 18:37:55 16° ENE visible
21 Oct 6.8 20:11:32 10° NW 20:12:57 19° WNW 20:12:57 19° WNW visible
22 Oct 5.9 18:19:02 10° N 18:21:41 17° NE 18:23:42 12° E visible
22 Oct 6.0 19:55:48 10° NW 19:58:46 31° W 19:58:46 31° W visible
23 Oct 5.9 18:03:15 10° N 18:05:56 17° NE 18:08:38 10° E visible
23 Oct 5.9 19:40:03 10° NW 19:43:41 32° WSW 19:44:57 26° SSW visible
24 Oct 6.0 19:24:20 10° NW 19:27:55 31° WSW 19:31:29 10° S visible
25 Oct 6.2 19:08:36 10° NW 19:12:10 31° WSW 19:15:42 10° S visible
26 Oct 6.3 18:52:52 10° NW 18:56:24 30° WSW 18:59:54 10° S visible
27 Oct 6.4 18:37:09 10° NW 18:40:38 29° WSW 18:44:06 10° S visible
28 Oct 6.6 18:21:24 10° NW 18:24:52 28° WSW 18:28:19 10° S visible
